Wind_Speed
51 50 51 52 52 51 50 49 48 48 48 48 48 48 50 52 52 52 53 54 54 55 55 54 52 50 47 45 42 38 34 32 32 32 31 31 30 29 29 31 33 33 36 38 39 38 33 26 23 24 26 29 30 31 32 32 32 32 32 32 31 31 30 30 29 28 27 26 25 24 24 24 25 26 28 31 34 36 37 37 37 37 37 37 37
51 52 53 53 52 51 50 49 49 49 48 48 48 50 52 52 52 53 55 55 56 56 56 55 53 50 48 46 43 38 34 32 31 31 30 30 30 28 29 31 32 33 36 38 39 36 28 23 23 25 27 29 30 31 31 32 32 32 32 32 32 31 30 30 29 28 27 26 25 24 23 23 23 24 25 27 30 33 35 36 37 38 38 38 38
52 53 53 52 51 50 50 49 49 49 50 50 50 51 52 52 52 54 56 56 56 57 56 55 53 50 49 46 43 39 34 31 31 30 30 30 29 28 29 31 32 33 36 38 38 31 23 21 24 26 27 29 29 30 31 31 32 32 33 33 33 32 31 30 29 28 27 26 25 24 23 23 23 23 24 25 27 29 32 34 36 38 38 38 38
51 52 52 52 52 52 51 50 50 51 52 52 51 51 51 51 53 55 56 56 56 56 55 54 52 50 49 47 43 39 34 31 30 29 29 29 28 27 29 31 31 32 35 37 35 25 20 22 24 25 27 28 29 30 31 32 33 34 34 34 34 34 32 31 30 29 28 27 25 24 23 23 23 23 23 23 24 26 28 31 34 36 38 39 39
51 53 54 54 55 54 54 53 52 52 53 52 50 50 51 52 54 56 56 56 55 55 54 53 52 51 50 47 42 38 33 30 29 29 28 28 27 27 29 30 29 32 35 36 29 20 19 22 23 25 26 27 29 30 31 32 33 34 35 35 35 35 34 32 31 29 28 27 26 24 24 24 24 24 24 24 24 24 25 28 30 33 36 38 39
54 55 55 56 56 56 55 54 53 53 53 52 51 51 51 54 56 56 55 54 53 53 53 52 52 51 50 47 42 38 32 29 28 28 27 27 26 26 28 28 28 31 34 33 23 17 19 21 22 23 24 26 29 30 32 33 34 35 35 36 36 36 35 34 33 31 29 27 26 24 24 23 24 24 25 25 24 24 24 26 27 30 33 35 38
55 56 55 55 56 56 55 54 54 55 55 54 53 52 53 55 55 54 53 53 52 52 52 52 52 51 49 46 41 37 31 27 27 27 26 26 26 26 27 26 27 30 33 28 18 16 19 20 21 22 23 26 29 30 31 32 34 35 36 36 36 36 36 36 34 33 31 29 27 25 24 23 23 23 23 24 24 24 24 25 26 27 29 32 35
55 56 56 56 55 54 54 54 56 57 57 55 54 54 54 53 53 52 52 52 52 52 52 52 51 50 48 44 41 36 29 26 26 26 25 25 25 26 26 24 26 30 31 23 15 15 18 19 19 20 22 25 28 30 30 31 33 34 35 36 37 36 36 36 35 34 34 32 30 27 25 24 23 22 22 22 23 23 23 24 24 25 26 28 31
55 55 56 55 55 54 54 56 57 57 56 56 55 54 53 51 51 52 52 52 52 52 52 52 51 49 47 43 39 34 28 25 25 25 24 24 25 25 24 22 25 29 28 19 13 15 16 17 18 20 22 25 29 30 30 30 31 33 34 35 37 37 37 36 35 36 36 34 33 30 27 25 24 23 22 22 21 21 22 22 23 23 24 26 28
56 56 55 54 54 55 55 56 57 56 57 56 56 54 53 51 51 52 52 52 52 52 52 51 50 48 44 41 38 33 27 24 23 23 23 24 24 23 21 21 24 27 25 15 11 14 15 16 18 21 22 25 29 29 28 29 30 31 33 34 35 37 37 37 36 37 37 36 35 32 29 26 25 24 23 22 22 21 20 20 21 22 22 24 25
58 58 59 57 57 57 58 58 58 58 58 58 56 55 53 52 52 52 53 52 52 52 51 50 49 46 42 39 36 32 27 23 22 22 22 23 22 21 19 20 24 26 22 13 11 13 14 16 19 22 24 25 26 27 27 28 29 30 31 33 34 36 38 38 38 37 37 37 36 34 32 29 27 25 24 23 23 22 20 20 19 20 21 22 23
60 60 61 60 60 60 60 60 60 60 59 58 57 56 55 54 53 53 53 52 52 51 50 49 47 44 40 37 34 30 25 22 21 21 21 21 19 18 18 19 23 24 21 13 10 11 13 16 20 24 23 22 23 25 27 28 29 30 30 31 33 35 36 37 38 38 38 38 37 35 34 32 30 27 25 24 23 23 22 20 19 19 20 20 21
62 62 63 62 62 62 62 61 60 60 59 59 58 57 56 55 53 52 52 52 51 49 48 46 44 42 38 35 33 28 24 21 20 20 20 18 17 17 17 19 22 23 19 12 9 10 12 15 20 23 20 19 22 24 27 28 29 30 31 31 32 33 34 36 37 38 39 38 38 37 35 34 32 30 28 25 24 23 23 22 20 19 19 19 19
62 63 65 63 63 63 62 62 61 60 59 59 58 58 56 55 53 52 51 50 49 47 45 43 41 39 36 33 31 27 22 20 19 18 17 16 16 17 18 18 20 22 18 12 9 9 11 14 19 19 17 18 21 24 26 27 29 30 31 31 32 32 33 34 36 37 38 39 38 37 36 34 33 32 30 28 25 24 23 23 21 19 19 18 18
62 63 65 64 63 64 64 63 62 60 60 59 59 58 56 54 52 50 48 47 46 44 42 40 39 37 34 32 30 25 21 20 18 17 16 16 17 18 18 17 19 21 18 12 9 10 12 15 17 16 15 18 21 23 25 27 29 29 30 31 31 32 32 33 35 36 38 38 39 39 37 36 34 33 32 31 28 25 24 23 22 20 19 18 18
63 64 66 64 63 64 64 62 60 59 59 58 57 56 54 52 49 46 44 43 42 41 39 37 36 35 32 31 28 23 21 19 18 17 15 16 17 17 17 16 18 20 17 12 10 10 13 14 15 14 15 18 20 23 25 26 28 28 29 30 31 32 32 33 34 35 36 37 38 39 39 37 35 34 34 33 31 28 25 23 22 21 19 18 18
63 64 65 63 62 62 61 59 58 57 57 56 54 52 50 47 44 42 41 40 39 38 37 35 34 33 32 30 27 22 20 19 17 16 15 16 16 16 17 16 18 19 16 12 10 10 12 13 13 13 14 17 20 22 23 25 26 27 28 29 31 32 32 33 33 34 34 36 37 39 39 39 37 35 34 34 33 30 28 25 23 21 20 19 18
61 62 62 60 59 58 57 56 55 55 54 52 49 46 44 42 40 39 38 37 36 35 34 34 33 32 31 29 25 21 20 19 17 17 15 16 16 16 16 16 17 18 15 12 10 10 10 11 11 11 13 17 19 21 22 24 25 27 28 29 31 32 32 33 33 34 34 35 36 38 39 39 38 36 34 33 33 32 30 26 24 22 21 20 19
57 58 59 57 56 55 53 52 51 50 48 46 44 42 40 39 38 36 36 35 34 33 33 33 32 31 30 27 24 21 20 18 17 17 16 16 17 16 16 16 16 16 14 11 9 9 9 9 10 11 14 16 18 20 20 22 24 26 28 29 30 31 32 33 33 34 34 34 35 37 38 39 39 37 35 34 34 33 31 28 25 23 21 21 20
53 54 55 53 52 51 49 47 46 45 43 42 40 39 38 37 36 35 34 33 32 32 32 32 31 30 29 26 22 21 20 18 16 17 16 15 17 18 17 17 16 16 13 10 8 8 9 9 10 11 14 17 18 19 19 20 23 26 27 28 29 31 31 32 33 33 34 33 34 36 37 38 39 38 36 35 34 34 32 30 27 24 22 21 20
50 51 50 47 47 46 44 43 42 41 40 40 39 38 37 35 34 33 33 32 32 32 32 31 30 29 27 24 22 21 20 17 16 17 15 15 17 18 18 17 16 15 13 11 8 7 8 8 9 11 14 17 19 20 19 20 22 25 27 28 29 30 31 32 33 33 33 33 34 35 36 37 38 38 37 35 34 34 33 31 29 26 24 22 21
48 48 46 44 44 43 41 40 39 39 39 39 38 36 35 34 33 32 32 31 31 31 31 30 28 27 25 23 22 21 20 17 16 16 15 16 19 19 18 16 16 16 13 11 9 7 8 7 8 10 14 17 19 20 20 20 21 24 26 28 29 30 31 31 32 33 33 33 34 35 35 36 37 37 37 36 34 33 33 33 30 28 26 23 22
47 46 46 44 43 41 38 38 38 38 38 38 37 35 34 34 33 31 31 31 31 31 30 28 27 26 24 22 22 21 19 18 17 16 17 19 21 21 19 16 15 16 14 11 10 8 8 8 8 11 13 16 18 19 19 19 20 22 25 27 29 30 31 32 32 33 33 33 34 35 35 36 36 37 37 36 34 33 32 32 31 29 27 25 23
45 46 46 42 41 39 37 38 38 37 36 37 35 34 33 33 32 30 30 31 31 30 29 27 26 25 23 22 22 21 19 19 17 17 18 20 22 22 19 16 14 16 14 12 11 10 9 9 9 11 12 14 16 17 18 18 19 21 24 26 28 30 31 32 32 33 33 33 34 34 35 35 36 36 36 36 35 33 32 31 31 30 28 27 25
45 46 46 41 39 37 36 38 38 37 36 36 35 33 33 32 30 29 30 30 30 29 28 27 26 25 23 22 21 20 19 19 17 17 18 21 23 21 17 15 13 15 14 12 11 11 11 10 10 10 10 12 14 15 16 17 18 20 22 24 26 28 30 31 32 33 34 34 34 35 35 35 36 36 36 36 36 34 32 31 31 30 29 27 26
44 45 45 41 38 36 36 39 38 36 35 35 34 33 32 30 29 29 29 30 30 28 27 27 26 24 22 22 21 20 20 18 17 17 18 20 20 16 15 14 12 14 13 11 10 10 10 9 8 6 7 10 12 14 16 17 18 19 21 23 25 27 29 31 32 33 34 34 35 35 35 35 36 36 36 36 36 35 33 31 30 30 30 29 27
44 44 45 41 37 36 37 39 37 35 35 35 34 32 30 29 28 28 28 29 29 28 27 26 25 24 22 22 21 20 20 18 17 17 17 16 15 14 15 13 12 13 12 9 9 9 8 7 3 2 7 10 12 14 16 18 19 20 21 22 24 26 28 30 31 32 34 35 35 35 36 36 36 36 36 36 35 35 34 32 30 29 29 29 28
45 44 45 42 38 37 39 39 36 35 35 34 33 32 30 29 28 27 29 29 28 28 27 26 25 24 23 22 21 20 19 17 16 17 16 15 15 17 15 11 12 13 11 9 9 8 7 4 2 4 8 11 12 14 16 17 19 20 21 22 23 25 27 29 30 31 33 34 35 35 36 37 36 36 36 36 35 35 34 33 31 29 28 28 29
46 45 45 42 38 38 40 38 36 35 34 33 33 32 30 29 28 27 29 29 28 28 27 25 25 24 23 22 21 20 19 17 16 16 15 17 18 18 16 12 13 14 12 10 9 8 6 5 5 7 10 12 14 16 16 17 19 20 21 21 23 25 26 28 29 30 32 33 34 35 36 37 37 37 36 36 36 35 34 33 32 30 29 27 27
47 46 46 43 40 40 41 38 36 35 34 33 33 33 30 28 27 27 29 28 28 29 26 25 25 24 23 22 21 21 19 17 16 16 15 17 17 17 17 14 14 15 13 12 11 10 8 7 8 10 12 14 15 17 17 17 19 21 21 21 22 24 26 27 29 30 31 33 34 35 36 37 38 37 37 37 36 36 35 34 32 31 30 29 27
49 48 48 45 42 43 42 39 38 36 35 34 34 33 29 27 27 28 29 28 28 29 26 26 25 24 23 22 22 21 19 18 17 17 16 16 16 17 17 17 17 18 16 15 14 12 11 10 10 12 13 14 16 18 18 18 20 21 22 21 22 24 26 27 28 30 31 33 34 35 36 37 38 38 37 37 37 37 36 35 33 32 31 31 29
50 50 49 47 45 45 43 40 40 37 36 36 34 32 29 27 26 28 30 28 29 28 26 26 25 24 23 23 23 22 20 18 18 18 18 17 17 17 18 19 20 20 21 19 17 15 14 13 13 14 15 15 16 18 18 19 20 22 23 23 23 24 26 27 28 30 31 32 33 34 36 37 38 39 39 38 38 38 37 36 34 33 32 32 31
51 51 50 49 49 47 44 43 41 39 38 37 34 32 30 27 27 30 31 29 29 28 27 26 26 25 24 24 23 22 20 18 19 19 19 18 18 19 19 20 21 22 23 22 19 17 17 16 16 17 18 17 17 19 19 20 21 23 24 24 23 24 26 27 28 30 30 32 33 34 35 37 39 40 40 39 38 38 38 37 36 34 33 32 32
52 51 51 52 51 48 46 45 43 41 40 37 35 33 31 29 28 31 31 30 30 28 27 26 26 25 24 24 23 22 20 19 19 19 18 18 18 19 19 20 21 23 25 24 20 18 18 19 18 18 18 17 18 21 21 22 23 24 25 25 24 25 26 27 29 30 31 31 33 34 35 36 39 40 41 41 40 39 39 38 37 36 34 33 32
52 52 52 53 51 49 47 47 45 43 41 38 37 34 33 31 30 32 32 30 30 28 28 26 25 25 24 24 23 22 21 18 17 16 15 16 18 19 19 19 19 22 24 24 22 19 19 20 19 18 18 18 20 22 23 23 24 25 26 26 25 25 26 28 29 31 31 32 33 34 35 36 38 40 41 42 42 40 40 39 39 38 36 34 33
52 51 52 53 51 50 49 48 47 45 43 41 40 38 36 34 32 33 32 31 30 29 28 27 26 26 25 25 24 23 20 18 16 15 15 16 18 19 19 19 18 20 22 22 20 19 21 21 20 20 20 21 22 23 24 25 26 27 28 27 26 26 27 28 30 31 32 32 33 34 36 37 38 40 41 42 42 42 41 40 40 40 38 36 34
50 50 51 52 51 50 50 49 48 46 45 44 43 41 39 36 34 33 32 31 30 29 29 28 27 27 27 26 25 24 21 19 18 17 16 16 18 19 19 19 19 20 21 20 19 19 21 21 20 22 23 23 24 25 26 27 27 28 29 28 26 26 27 28 30 32 33 33 34 35 36 37 38 40 41 41 42 42 42 41 41 41 40 38 36
48 49 50 50 50 50 50 50 50 49 49 48 47 44 42 39 36 34 33 32 31 30 29 28 28 28 27 27 26 25 23 21 19 18 17 17 19 19 18 19 19 20 21 21 20 21 21 21 22 24 25 26 26 27 28 29 29 30 30 28 26 26 27 28 31 33 34 34 34 35 36 38 39 40 41 42 42 42 42 42 41 41 41 40 39
46 47 48 48 49 49 50 51 51 52 52 52 50 47 45 42 39 37 35 33 32 31 30 29 29 29 28 28 28 27 25 22 21 20 18 18 19 20 18 18 18 19 20 21 21 21 21 22 25 26 27 28 28 28 30 30 30 31 30 27 26 26 27 29 31 33 35 35 35 35 36 38 39 40 41 43 43 42 42 42 42 42 42 42 41
44 44 45 46 47 48 49 51 52 53 54 53 52 49 47 44 42 40 37 35 34 33 32 31 30 30 29 30 30 28 27 25 22 21 19 19 20 19 18 18 19 20 21 22 22 22 23 24 26 28 29 30 30 30 31 32 31 31 30 27 26 26 27 29 31 33 35 35 35 35 37 38 39 39 41 43 44 43 43 43 43 43 43 43 42
42 42 43 44 46 47 48 51 52 54 54 53 52 50 49 47 45 43 40 37 35 34 33 32 31 31 30 31 31 29 28 26 23 22 21 20 20 18 17 19 20 21 22 22 23 23 24 27 28 29 30 31 32 32 32 32 31 31 30 28 27 27 28 29 31 33 35 36 36 36 37 39 40 41 42 43 44 44 43 43 43 43 43 43 43
39 40 41 43 45 47 48 50 51 53 53 52 51 50 49 48 47 45 43 40 37 36 34 33 33 33 32 32 32 30 28 25 24 23 23 22 19 18 19 21 20 21 22 22 24 25 26 29 30 30 32 32 33 33 33 32 31 31 30 29 28 28 29 30 32 34 35 37 38 38 38 39 41 42 43 44 44 45 44 44 44 44 44 43 43
34 36 39 42 45 47 48 49 49 49 49 48 49 50 50 49 48 47 45 43 41 38 36 34 34 34 33 33 32 30 27 24 22 21 20 20 20 20 22 24 23 23 23 24 26 26 28 30 32 32 32 32 33 34 33 32 31 31 29 29 29 31 31 32 33 35 36 37 39 40 40 41 42 42 44 45 45 46 45 45 45 45 45 44 43
32 34 36 41 44 46 47 47 46 46 46 47 48 49 50 50 49 48 46 45 44 41 39 36 34 34 34 33 32 30 26 22 20 18 16 17 22 25 26 28 28 26 26 28 27 27 28 31 33 34 33 33 33 33 32 32 31 30 28 29 31 34 35 35 35 36 37 38 40 41 42 43 44 44 45 46 47 47 46 46 46 46 46 45 43
29 32 35 39 41 42 43 43 43 45 46 47 48 48 50 50 49 49 48 47 45 44 42 39 36 34 34 34 34 32 28 23 22 20 17 18 22 28 30 27 26 26 28 30 29 29 29 32 35 36 34 33 32 31 31 32 30 28 29 32 35 36 36 36 36 37 39 40 41 43 43 44 46 46 47 48 48 48 48 47 47 47 46 45 43
28 31 34 37 38 38 39 40 42 43 45 46 47 48 48 49 49 49 48 48 47 45 44 41 38 36 35 35 35 35 31 26 23 21 19 22 25 29 31 26 24 26 29 31 31 31 30 33 37 37 36 34 33 32 32 31 29 29 33 37 38 36 35 36 37 38 40 41 43 44 45 45 47 48 49 49 49 50 49 49 49 49 47 46 44
27 30 33 34 35 35 36 38 40 41 43 45 46 47 47 47 47 48 48 49 48 47 45 43 41 39 37 36 35 35 33 27 23 22 23 27 29 31 30 27 25 27 31 33 33 32 32 34 36 38 38 36 34 34 32 30 29 33 39 40 38 36 37 38 38 38 39 41 43 44 45 46 47 49 50 51 51 51 51 50 51 50 49 47 45
27 30 32 31 32 33 35 36 36 38 40 42 44 45 46 46 46 46 47 48 48 47 46 44 43 42 40 38 35 35 34 29 26 25 26 29 29 26 22 21 23 28 34 37 36 34 34 33 35 38 38 36 36 35 31 30 34 40 42 39 37 39 41 41 40 38 37 39 42 44 45 46 48 49 51 52 52 52 52 51 52 51 50 47 46
28 31 31 30 31 32 33 33 34 35 37 39 41 42 43 44 44 44 45 46 47 47 47 46 45 44 43 40 37 35 34 30 30 29 28 29 29 25 19 17 23 31 37 39 37 35 34 34 37 39 37 36 36 32 31 35 41 41 39 38 40 43 43 42 41 39 38 39 41 43 44 46 48 50 51 51 53 53 53 53 52 51 49 47 46
30 31 30 30 31 32 31 31 32 33 35 36 38 39 39 41 42 43 43 44 45 47 48 48 46 46 44 42 39 35 32 32 33 32 31 31 32 29 22 20 28 36 39 40 39 37 35 35 37 37 37 36 32 31 36 41 42 38 38 41 44 45 44 43 41 40 40 40 41 41 43 45 48 51 51 51 52 53 53 53 53 51 48 47 46
31 31 29 30 31 31 30 29 29 31 32 34 35 36 36 38 39 41 42 42 43 46 48 48 47 46 44 43 39 34 32 35 37 35 34 34 35 32 25 25 34 39 40 40 38 36 35 34 36 39 39 35 33 38 42 41 38 37 39 43 44 44 44 42 41 41 41 40 41 42 43 45 48 50 51 51 52 53 53 53 52 50 47 47 46
Wind_Direction
272 276 279 281 282 283 283 284 285 287 289 293 296 299 300 302 303 306 310 313 315 315 316 317 318 318 318 318 318 317 312 307 309 310 311 311 313 318 318 318 323 328 331 333 334 333 334 339 343 344 342 341 340 341 341 340 339 338 338 337 336 335 333 332 329 326 320 315 310 306 301 294 287 280 273 267 263 260 258 257 255 255 254 254 253
273 278 281 281 282 282 282 283 285 287 290 293 296 298 300 302 304 307 309 311 313 313 314 315 316 317 317 317 317 316 312 308 309 309 309 309 312 317 316 318 323 328 330 333 333 334 338 343 346 345 344 344 344 345 345 344 343 342 341 341 339 338 337 335 333 330 326 320 313 307 305 301 294 287 281 274 269 264 261 258 256 254 253 253 253
276 278 280 280 281 282 283 283 285 288 290 293 295 297 300 301 303 305 307 309 310 310 312 314 315 315 316 316 315 315 312 308 308 307 307 308 311 316 315 318 323 327 330 332 333 336 342 347 347 347 347 348 350 350 350 349 348 347 347 345 344 342 340 338 336 333 330 327 320 311 306 304 302 296 288 281 275 269 264 260 257 255 253 251 251
276 277 278 279 280 281 282 283 285 288 290 292 294 296 297 298 300 302 305 306 308 308 310 312 314 314 314 315 314 314 312 308 306 305 305 307 311 314 315 317 323 327 330 332 334 339 346 348 348 349 351 353 355 355 355 355 354 354 352 350 348 346 344 341 339 336 332 329 325 318 309 304 303 301 295 288 282 275 269 264 260 256 254 252 250
274 276 278 278 279 280 279 281 284 287 288 290 293 294 295 296 298 301 303 304 306 307 309 311 312 312 313 313 312 312 310 306 304 303 303 306 310 313 314 317 324 327 330 333 336 343 348 348 350 353 356 358 0 1 1 1 360 359 357 355 353 350 348 346 343 340 336 333 329 323 315 307 302 300 298 295 289 282 275 270 264 259 256 253 251
273 275 277 277 277 277 277 279 283 286 288 289 291 292 293 294 296 298 300 302 304 306 307 309 310 311 311 312 311 311 309 305 303 300 302 305 309 312 312 317 325 328 331 334 338 347 348 349 353 357 360 3 6 6 5 5 4 3 2 360 358 355 353 351 348 345 342 339 336 332 325 317 309 303 298 296 292 288 282 275 269 264 259 256 253
272 273 274 274 275 276 276 278 283 286 287 288 290 291 292 293 295 297 299 301 303 304 305 307 308 309 310 310 309 309 307 303 301 299 301 304 308 311 311 318 326 328 332 335 341 347 347 350 356 359 1 5 7 6 6 6 6 6 5 3 1 359 357 355 353 351 350 346 344 341 336 331 324 315 307 299 294 289 286 281 274 268 264 259 256
272 272 272 272 274 276 275 277 282 285 286 287 288 290 291 292 294 296 298 300 301 303 304 305 306 307 308 307 306 307 305 302 299 298 300 304 308 309 310 320 326 328 333 335 342 345 346 353 358 359 359 3 4 2 2 3 5 6 7 6 5 3 1 359 357 356 356 353 351 348 344 341 336 329 322 312 301 293 288 285 281 274 269 264 260
272 272 273 272 273 274 275 277 281 283 284 286 288 289 290 292 293 295 297 299 300 301 302 303 304 305 305 305 304 304 303 300 298 297 299 303 307 306 309 321 326 329 333 334 341 342 346 356 359 358 357 358 358 358 359 1 3 5 6 7 8 6 5 3 1 0 359 358 357 354 349 346 341 337 333 325 314 302 294 289 286 281 275 270 265
270 270 272 272 273 274 276 278 280 282 284 286 287 288 290 291 292 294 295 297 298 299 301 301 301 302 303 302 302 303 302 298 296 296 299 303 305 303 309 322 325 330 333 332 339 339 347 358 0 356 353 353 354 357 360 1 2 4 6 7 8 8 8 6 4 2 1 1 1 359 355 351 346 342 338 334 327 314 303 294 289 285 280 274 270
270 270 272 272 273 275 277 279 281 282 283 285 286 287 288 290 291 292 294 295 296 298 298 299 299 300 300 300 301 300 300 295 293 294 298 303 302 301 311 320 324 331 332 329 334 337 347 358 0 356 352 352 356 1 4 4 4 5 5 6 8 8 9 8 6 4 2 2 2 1 359 356 352 346 341 338 334 327 315 303 294 288 283 278 273
272 273 273 274 276 277 278 279 281 282 283 284 285 286 288 289 290 291 293 294 295 296 296 296 296 297 298 299 298 298 296 291 291 293 299 302 297 300 312 318 323 331 331 325 328 335 346 355 358 356 354 358 2 5 6 6 6 5 5 6 7 8 8 8 8 7 5 3 2 2 1 359 356 352 346 340 336 334 327 315 303 295 288 282 276
272 274 274 276 277 278 278 279 281 282 283 284 285 286 287 288 289 290 291 292 293 293 293 293 293 295 296 297 295 295 292 287 287 291 298 298 294 302 311 315 322 330 330 321 322 330 341 348 352 354 359 4 5 5 5 5 5 5 5 6 6 6 6 7 7 8 7 5 3 1 1 1 358 355 351 345 339 336 334 328 315 304 295 289 283
271 272 273 274 275 276 277 279 280 281 282 283 284 285 286 287 289 290 290 290 290 291 290 290 291 293 294 294 292 291 286 283 284 289 296 293 293 303 309 314 320 328 329 318 315 321 332 337 342 351 1 4 2 3 3 3 4 4 4 4 5 5 4 5 6 7 8 7 5 2 1 0 358 357 354 350 344 339 336 335 327 314 303 295 289
270 270 271 273 274 275 276 278 279 280 281 282 283 285 286 287 288 289 289 288 288 288 288 289 289 291 292 290 289 287 282 279 280 286 291 288 292 303 308 314 318 326 327 316 309 306 317 327 335 345 354 359 360 1 2 1 2 2 3 3 3 4 4 3 5 6 6 6 5 4 2 359 358 357 355 353 349 344 339 337 334 325 314 304 296
269 270 271 273 274 275 276 277 278 279 280 281 283 284 286 287 288 288 287 286 286 286 286 287 288 289 288 286 285 283 278 275 277 283 287 283 290 301 308 313 316 324 325 315 306 297 309 323 332 338 345 354 358 359 1 1 0 1 2 2 3 4 4 3 3 4 4 5 5 4 3 359 358 357 356 355 352 349 344 340 338 333 326 317 308
269 270 271 272 273 274 275 277 278 279 279 281 282 284 285 286 286 286 285 284 284 284 285 286 286 286 283 282 282 279 274 271 273 281 283 278 286 298 307 313 314 322 323 315 309 301 311 324 330 334 342 351 354 357 359 360 360 0 2 2 3 3 4 4 2 2 3 4 4 3 2 1 359 358 357 356 354 352 348 344 341 338 332 326 320
269 269 271 272 272 273 275 276 277 278 279 281 282 283 284 284 284 283 283 282 282 283 284 283 282 281 280 280 280 276 270 268 270 278 279 272 280 292 304 313 312 318 321 314 311 308 315 325 328 333 342 349 351 355 358 359 360 360 1 2 2 2 3 4 2 1 2 3 3 2 1 1 360 358 358 357 356 355 352 348 344 341 337 331 325
268 269 270 271 272 272 274 275 276 277 279 280 281 281 281 281 281 281 280 280 281 281 281 280 279 278 278 279 277 272 267 264 268 276 276 269 274 286 300 312 309 314 319 312 311 309 314 323 325 334 343 348 350 354 358 359 0 0 0 0 0 1 1 2 2 2 1 1 1 1 1 1 0 359 358 358 358 357 355 353 348 344 341 336 328
267 268 270 271 272 272 273 274 275 277 278 278 278 278 278 279 279 278 278 278 279 278 278 277 277 277 278 278 274 268 263 262 268 274 273 271 275 282 295 308 305 307 315 307 306 306 309 316 319 331 340 344 347 351 356 358 0 1 1 0 359 360 359 0 1 1 0 360 359 0 1 0 0 360 359 358 358 358 357 356 353 349 343 340 332
266 266 268 270 271 272 273 274 275 276 275 275 275 276 276 277 277 276 276 276 276 276 276 276 277 278 278 276 270 265 260 259 266 271 273 275 279 283 292 304 300 301 311 302 295 297 299 307 313 324 333 338 342 346 350 354 357 360 360 360 359 359 359 359 359 360 359 359 359 360 1 0 0 0 360 359 359 359 359 358 357 353 348 342 338
265 265 266 268 270 271 273 274 274 273 272 273 273 274 275 276 275 274 274 275 275 275 275 276 278 278 276 273 267 262 258 256 262 268 274 279 281 285 289 298 296 296 307 299 284 284 287 296 308 320 328 333 337 341 345 348 352 355 356 357 357 359 359 358 359 359 358 358 358 359 0 1 0 0 360 360 360 359 359 359 358 357 353 347 342
263 264 265 266 269 271 272 272 271 270 270 271 272 273 274 273 273 273 274 274 275 275 275 277 277 276 273 269 264 259 255 255 261 267 276 280 281 285 285 291 292 292 306 301 278 270 276 287 304 319 326 332 335 338 341 343 347 351 353 354 355 356 358 358 357 357 357 357 358 358 359 0 0 0 0 0 0 0 359 359 359 358 357 352 346
263 264 265 266 267 269 270 270 269 269 269 270 271 271 271 271 272 273 273 273 274 274 275 275 274 272 270 266 261 257 253 255 263 270 277 281 283 284 282 285 287 289 305 303 276 262 266 282 300 316 326 334 338 340 341 340 343 346 348 352 352 353 355 356 356 355 356 356 356 357 358 359 359 359 360 360 360 0 359 358 358 359 359 356 351
263 264 265 265 266 267 268 268 267 268 268 268 269 269 268 270 272 272 272 272 272 273 274 273 271 269 266 262 259 255 252 257 266 274 283 286 285 283 278 282 283 287 303 302 278 261 262 276 292 308 327 343 347 346 344 340 342 343 345 349 350 349 351 353 354 354 355 355 355 355 356 357 358 358 358 359 359 359 359 358 357 357 358 357 355
262 264 265 265 266 266 266 266 266 267 267 267 267 267 267 270 271 271 271 271 271 272 271 270 269 266 263 260 258 254 252 259 269 280 290 290 287 285 280 280 278 286 302 298 278 263 261 269 281 306 342 355 355 352 349 345 344 342 342 346 348 348 348 350 351 352 353 353 353 353 354 355 356 357 357 357 358 358 358 358 356 355 356 356 356
262 263 265 264 265 265 264 264 264 266 266 266 267 266 268 268 268 269 269 269 270 270 269 268 267 264 261 259 257 253 254 261 271 285 292 289 292 299 290 278 273 288 301 291 274 265 263 263 265 340 357 354 353 353 350 347 345 341 338 341 345 346 346 347 348 349 350 351 352 351 351 353 353 354 355 356 356 357 357 357 356 355 354 354 355
260 261 263 263 263 264 263 263 264 265 265 266 267 267 267 266 266 266 266 267 268 269 267 267 266 263 261 258 255 252 255 262 272 286 289 286 296 306 298 275 272 290 298 286 272 267 263 254 268 334 347 348 348 348 348 345 342 339 336 337 340 343 345 346 345 345 347 348 349 349 349 350 351 353 353 354 355 355 355 356 355 355 353 353 353
259 260 262 263 263 262 262 263 264 264 265 266 266 265 264 264 265 264 264 266 267 266 265 264 264 262 260 257 253 251 254 261 273 284 286 287 294 301 296 273 270 287 298 290 273 268 267 263 292 317 331 338 341 342 343 341 339 336 332 332 335 339 342 344 343 343 344 345 346 347 347 348 349 351 351 351 352 353 353 354 354 354 353 352 351
259 259 261 261 261 261 261 262 263 263 263 264 263 263 263 263 265 263 263 263 264 263 263 262 261 260 258 255 251 250 252 259 270 279 282 287 292 295 290 272 267 278 292 296 279 267 268 273 293 308 318 326 333 337 337 336 336 334 330 328 330 334 339 341 341 340 341 342 344 345 345 346 347 348 349 348 349 350 351 352 352 353 353 351 350
258 259 259 260 259 259 260 262 262 261 262 261 261 262 262 263 264 262 261 261 260 261 260 260 259 258 255 251 249 249 251 258 268 275 280 285 291 291 283 271 268 271 279 289 285 269 263 273 286 298 311 320 328 333 333 333 335 333 329 326 325 330 335 338 338 337 337 339 340 342 343 343 344 345 347 347 347 347 348 349 350 350 351 351 349
256 257 258 259 258 258 259 260 260 260 260 260 261 262 262 262 262 260 258 257 257 258 258 258 258 256 253 249 248 248 252 260 269 277 281 285 291 290 282 271 268 271 273 278 283 273 262 270 282 293 305 313 323 329 329 332 334 332 328 324 323 326 330 333 335 335 334 335 336 337 339 340 342 343 344 345 344 344 345 346 347 347 348 349 349
254 255 256 257 257 257 258 258 259 259 259 260 261 262 262 261 260 257 256 255 255 257 257 256 257 255 251 248 246 248 252 260 270 277 280 285 288 288 283 273 267 270 273 273 278 275 267 272 280 289 301 309 317 324 326 329 331 331 329 324 320 321 326 328 331 332 331 331 332 334 335 337 339 340 341 342 342 342 342 343 343 344 344 345 347
253 254 254 255 255 256 257 257 258 258 259 259 260 260 260 258 256 256 256 255 255 256 256 255 255 253 249 246 244 247 252 261 271 276 281 286 286 283 281 276 269 268 271 272 274 273 269 271 276 285 298 306 311 317 322 326 327 328 328 324 319 318 321 324 326 328 328 328 329 331 332 335 337 338 338 339 340 340 340 340 340 340 341 341 342
252 252 253 254 255 256 256 256 257 257 258 259 259 259 258 255 253 255 256 255 255 255 255 254 254 251 245 242 242 245 252 260 269 278 286 289 287 281 276 274 271 269 270 272 270 270 269 270 275 284 293 298 303 311 318 323 325 325 325 323 318 316 317 320 323 325 326 326 327 328 330 332 334 335 335 335 336 337 337 337 336 337 338 338 339
253 253 253 254 255 255 255 256 256 256 257 257 257 256 254 253 252 254 256 255 255 254 254 253 252 248 242 239 240 245 252 257 263 276 290 295 291 283 274 268 267 269 271 271 269 271 271 271 275 282 288 291 297 306 314 320 322 322 322 321 318 315 315 317 320 322 324 325 325 327 328 329 331 333 333 332 333 334 334 334 334 333 334 335 335
253 253 253 254 254 255 255 255 256 256 256 255 254 253 252 252 250 251 254 254 254 254 253 252 250 246 241 239 241 245 251 255 259 272 287 295 292 284 275 267 266 268 268 267 268 270 271 271 275 280 284 288 294 302 310 316 318 319 319 318 316 314 314 315 317 320 322 323 324 325 326 327 328 329 331 331 331 331 331 332 332 331 331 331 332
253 253 253 253 253 254 254 255 255 254 253 252 251 251 250 250 249 248 250 252 252 251 250 249 248 245 240 238 240 244 250 254 260 270 281 291 290 281 271 267 266 267 265 264 267 268 271 274 278 280 282 285 291 299 307 312 314 316 316 315 313 312 313 314 316 318 320 321 322 323 324 324 325 326 328 330 330 329 328 329 330 329 328 329 329
253 253 252 252 252 252 252 252 252 251 251 250 249 249 248 248 247 246 246 248 249 249 248 246 245 242 238 237 240 244 248 253 260 267 276 287 289 281 270 266 266 266 267 268 269 267 270 277 280 280 281 285 290 296 303 308 311 313 312 311 310 309 311 312 314 316 318 319 320 321 321 321 322 324 326 328 329 328 327 327 327 328 327 327 328
253 253 253 252 252 251 250 250 249 249 248 248 248 247 247 247 246 245 244 244 246 247 246 244 243 240 237 238 241 245 250 255 260 265 272 281 288 283 271 267 266 266 267 270 269 268 273 280 282 282 282 286 289 294 300 305 309 311 309 308 307 307 309 311 313 314 316 317 317 317 318 318 320 321 323 326 327 327 326 325 325 326 326 326 326
253 253 253 252 251 250 249 248 247 247 247 246 246 246 246 245 245 244 243 242 244 245 245 243 242 239 237 239 243 246 251 256 258 264 272 277 283 283 276 275 273 269 269 270 268 270 280 286 287 286 286 287 288 292 298 302 306 308 306 305 304 306 309 311 312 313 314 315 315 314 315 316 318 320 322 324 326 326 325 324 323 324 324 324 324
254 253 253 252 251 250 248 248 247 247 247 247 247 247 246 245 244 244 243 242 242 243 244 242 241 240 237 240 245 247 250 254 258 267 275 277 276 274 280 287 283 276 275 274 272 276 285 289 290 289 288 288 288 291 296 300 303 304 303 303 304 306 309 310 312 312 313 314 313 312 312 314 316 319 321 323 325 325 324 323 322 322 323 323 323
256 256 255 253 252 250 249 248 248 249 249 249 248 247 246 245 244 243 242 241 240 240 241 240 240 239 238 240 243 247 249 251 258 263 267 276 275 269 276 284 283 281 280 277 277 281 287 291 291 290 288 288 288 290 294 297 300 301 302 304 305 307 309 309 311 311 313 313 312 311 311 312 314 318 320 322 324 324 323 321 321 322 322 323 322
260 259 258 256 254 253 252 251 252 251 251 250 248 247 246 245 244 243 242 241 240 239 238 238 238 239 239 239 240 243 245 249 252 244 240 258 270 271 275 279 280 280 278 277 279 281 288 292 291 288 288 288 288 289 291 295 298 299 302 307 308 308 308 309 310 311 313 313 312 311 310 312 313 317 319 321 323 323 321 320 321 321 321 322 322
262 263 261 260 258 257 257 256 255 253 251 249 248 247 245 244 243 242 242 241 240 239 238 238 237 238 239 238 237 238 240 244 240 232 230 238 254 268 276 279 277 273 271 274 278 282 286 290 289 288 287 287 287 286 289 293 295 297 303 308 309 309 308 309 310 311 313 313 312 310 310 311 313 316 319 321 321 321 320 320 320 320 321 322 322
265 265 263 262 262 262 261 259 257 255 252 250 249 247 246 244 243 242 241 240 239 239 238 237 237 237 237 238 238 238 239 241 236 231 231 227 231 250 267 276 273 268 269 272 277 282 286 287 287 286 286 287 286 285 287 290 291 295 303 308 309 309 308 308 309 310 312 313 312 310 310 311 313 316 318 319 320 320 320 320 320 320 321 322 321
267 267 266 265 265 265 262 259 257 256 254 253 251 249 247 245 243 242 241 240 238 237 237 237 236 236 236 236 238 240 239 237 236 234 229 225 225 238 259 271 265 264 267 268 273 280 283 283 283 284 286 288 286 285 286 286 288 295 302 307 308 309 309 307 306 308 310 311 311 310 309 310 313 315 317 318 320 320 320 320 320 321 321 321 320
270 270 269 269 268 265 262 260 259 257 256 254 253 252 250 247 245 243 242 241 239 237 236 236 236 236 236 235 236 240 240 236 237 238 230 227 229 237 255 267 264 261 261 263 269 276 279 280 281 283 286 287 287 286 283 281 288 297 302 306 308 310 310 307 305 306 307 308 309 309 309 310 312 314 316 318 319 320 319 319 320 320 321 321 320
272 271 271 272 271 267 264 263 260 258 256 254 253 252 251 249 247 244 243 242 240 238 236 234 234 235 236 236 235 237 240 238 239 238 232 231 233 232 240 256 259 255 255 260 266 271 275 278 280 282 284 286 286 284 280 283 291 298 303 306 309 311 309 306 305 305 305 308 308 308 309 310 311 313 315 317 318 318 318 319 320 320 320 320 319
271 271 273 274 272 270 268 266 264 261 259 256 254 252 251 250 249 246 243 242 240 239 237 234 233 234 235 236 235 236 239 240 239 237 232 233 233 231 235 243 244 248 256 264 268 269 272 275 277 280 283 284 284 283 284 288 294 299 304 308 310 310 308 306 305 304 305 308 309 310 310 310 311 313 315 316 317 318 318 319 320 320 319 319 319
269 270 273 274 274 273 273 271 268 266 263 260 257 254 251 250 249 247 244 242 240 238 237 235 233 233 234 236 236 236 240 241 240 237 233 232 231 233 238 239 241 251 261 265 267 268 268 272 275 280 282 280 284 289 289 291 295 300 306 310 311 311 309 307 305 305 307 309 311 310 309 310 311 313 314 315 317 317 318 319 319 319 319 318 318
Height
10896 10896 10896 10895 10896 10897 10898 10898 10899 10899 10899 10899 10898 10897 10896 10896 10896 10895 10894 10893 10892 10890 10889 10888 10888 10887 10886 10885 10883 10881 10879 10877 10874 10872 10870 10868 10866 10864 10862 10859 10858 10856 10853 10850 10847 10844 10842 10839 10837 10834 10832 10830 10827 10825 10822 10819 10816 10814 10811 10809 10807 10804 10802 10799 10797 10795 10794 10792 10791 10790 10789 10788 10787 10786 10785 10785 10785 10785 10785 10786 10786 10786 10787 10787 10788
10894 10893 10893 10893 10893 10895 10895 10896 10896 10896 10897 10897 10896 10896 10895 10894 10893 10892 10892 10891 10890 10888 10887 10886 10886 10885 10884 10883 10881 10880 10877 10875 10873 10870 10869 10867 10865 10863 10861 10858 10856 10854 10852 10849 10846 10843 10841 10838 10836 10834 10831 10829 10827 10824 10821 10818 10816 10813 10811 10808 10805 10803 10800 10798 10796 10794 10792 10790 10789 10788 10787 10785 10784 10783 10782 10782 10781 10781 10781 10781 10782 10782 10783 10783 10784
10891 10890 10890 10890 10891 10892 10892 10893 10893 10894 10894 10895 10895 10894 10893 10891 10891 10890 10890 10889 10888 10886 10885 10884 10884 10883 10882 10881 10879 10878 10876 10874 10872 10869 10868 10866 10864 10862 10860 10857 10855 10853 10851 10848 10845 10842 10840 10838 10836 10833 10831 10829 10826 10823 10821 10818 10815 10813 10810 10807 10804 10802 10799 10797 10794 10792 10790 10788 10786 10785 10784 10783 10782 10781 10780 10779 10778 10777 10777 10777 10777 10778 10778 10779 10780
10888 10888 10888 10888 10888 10889 10889 10890 10890 10891 10892 10893 10893 10892 10891 10890 10888 10888 10887 10887 10886 10884 10883 10882 10881 10881 10880 10879 10877 10876 10874 10872 10870 10868 10866 10865 10863 10861 10858 10856 10855 10853 10850 10847 10844 10842 10840 10838 10835 10833 10831 10828 10826 10823 10820 10818 10815 10812 10809 10806 10803 10801 10798 10795 10793 10791 10788 10786 10785 10783 10782 10781 10779 10778 10777 10776 10775 10775 10774 10774 10773 10774 10774 10775 10775
10886 10886 10885 10885 10886 10886 10886 10887 10887 10888 10889 10890 10891 10891 10889 10888 10886 10886 10885 10884 10884 10882 10881 10880 10879 10879 10878 10876 10875 10874 10873 10871 10869 10867 10865 10863 10862 10860 10857 10855 10854 10852 10849 10846 10844 10842 10839 10837 10835 10832 10830 10828 10825 10823 10820 10817 10815 10812 10809 10806 10803 10800 10797 10795 10792 10790 10787 10785 10783 10781 10780 10778 10777 10776 10775 10774 10773 10772 10771 10771 10770 10770 10770 10771 10771
10884 10884 10883 10882 10882 10882 10883 10883 10884 10885 10886 10887 10888 10888 10887 10886 10884 10884 10883 10882 10881 10880 10878 10878 10877 10876 10875 10874 10873 10872 10871 10869 10867 10865 10864 10862 10861 10858 10856 10855 10853 10851 10848 10845 10843 10841 10839 10837 10834 10832 10830 10828 10825 10823 10820 10817 10815 10812 10809 10806 10803 10800 10797 10794 10791 10789 10787 10784 10782 10780 10778 10776 10775 10774 10773 10772 10771 10770 10769 10768 10767 10767 10767 10767 10767
10881 10880 10880 10879 10878 10879 10880 10880 10881 10881 10882 10883 10885 10885 10885 10884 10882 10881 10880 10879 10878 10877 10876 10875 10875 10874 10873 10872 10871 10870 10869 10867 10865 10864 10863 10861 10859 10857 10855 10854 10852 10850 10847 10845 10843 10841 10839 10837 10834 10832 10830 10827 10825 10822 10820 10818 10815 10812 10809 10806 10803 10800 10797 10794 10791 10788 10786 10784 10781 10780 10777 10775 10773 10772 10770 10769 10768 10767 10767 10766 10765 10764 10764 10764 10764
10878 10877 10876 10875 10875 10875 10877 10877 10878 10878 10879 10880 10881 10882 10882 10881 10879 10878 10878 10877 10876 10874 10873 10872 10872 10871 10871 10870 10869 10868 10867 10866 10864 10862 10861 10860 10858 10856 10854 10853 10851 10849 10846 10844 10842 10840 10838 10836 10834 10832 10829 10827 10825 10823 10820 10818 10815 10812 10809 10806 10803 10800 10797 10794 10791 10788 10786 10783 10781 10779 10777 10774 10772 10770 10769 10767 10766 10765 10764 10763 10763 10762 10761 10761 10761
10875 10873 10872 10872 10872 10873 10874 10874 10875 10875 10876 10876 10877 10879 10879 10879 10877 10875 10875 10874 10873 10872 10871 10869 10869 10869 10868 10867 10866 10866 10865 10864 10862 10861 10860 10859 10857 10855 10853 10852 10850 10848 10846 10844 10842 10840 10838 10836 10834 10832 10829 10827 10825 10823 10820 10818 10815 10813 10809 10807 10804 10801 10798 10795 10792 10789 10786 10783 10780 10778 10776 10773 10771 10769 10767 10766 10764 10763 10762 10761 10760 10760 10759 10758 10758
10871 10869 10869 10869 10869 10870 10871 10871 10872 10873 10872 10873 10874 10875 10875 10875 10874 10873 10872 10871 10870 10869 10868 10866 10866 10866 10866 10865 10864 10863 10863 10862 10860 10859 10858 10857 10855 10854 10852 10851 10849 10847 10845 10843 10841 10839 10838 10836 10834 10831 10829 10827 10825 10823 10821 10818 10815 10813 10810 10807 10804 10801 10798 10795 10792 10789 10786 10783 10780 10777 10775 10773 10770 10768 10767 10765 10763 10761 10760 10759 10758 10757 10757 10756 10756
10866 10866 10865 10866 10867 10867 10868 10868 10869 10869 10869 10870 10871 10871 10872 10872 10872 10870 10869 10868 10867 10866 10865 10864 10863 10863 10863 10862 10862 10861 10861 10860 10859 10858 10857 10856 10854 10852 10851 10850 10848 10846 10844 10842 10840 10839 10837 10835 10833 10831 10829 10828 10825 10823 10821 10818 10816 10813 10810 10808 10805 10801 10798 10795 10792 10789 10786 10783 10780 10778 10775 10772 10770 10768 10766 10764 10762 10760 10759 10757 10757 10756 10755 10754 10754
10862 10862 10860 10862 10864 10864 10864 10865 10865 10866 10866 10866 10867 10867 10868 10869 10869 10868 10866 10865 10864 10863 10862 10861 10860 10860 10860 10860 10859 10859 10858 10857 10857 10856 10855 10854 10852 10851 10850 10849 10847 10845 10843 10841 10840 10838 10837 10835 10833 10831 10830 10828 10826 10823 10821 10818 10816 10813 10811 10808 10805 10802 10799 10796 10793 10789 10786 10783 10780 10778 10775 10772 10770 10768 10765 10763 10761 10759 10758 10756 10755 10754 10753 10752 10751
10859 10858 10855 10859 10860 10860 10860 10861 10862 10862 10862 10862 10863 10863 10864 10865 10865 10865 10863 10862 10860 10860 10859 10858 10857 10857 10857 10857 10857 10857 10856 10855 10855 10854 10854 10852 10851 10850 10849 10847 10846 10844 10842 10840 10839 10837 10836 10834 10833 10831 10830 10828 10826 10824 10821 10819 10816 10814 10811 10808 10805 10802 10799 10796 10793 10790 10786 10783 10780 10777 10775 10772 10770 10767 10765 10763 10760 10758 10757 10755 10754 10752 10751 10750 10750
10856 10853 10850 10855 10856 10855 10856 10858 10859 10859 10859 10858 10858 10859 10860 10860 10861 10862 10860 10858 10857 10857 10856 10855 10855 10855 10855 10855 10854 10854 10854 10853 10853 10853 10852 10850 10849 10848 10847 10846 10844 10843 10841 10839 10838 10837 10836 10834 10833 10831 10830 10828 10826 10824 10821 10819 10816 10814 10811 10808 10805 10802 10799 10796 10793 10790 10787 10784 10781 10778 10774 10772 10770 10767 10765 10762 10760 10758 10756 10754 10753 10751 10750 10749 10748
10852 10848 10846 10851 10852 10851 10852 10854 10855 10855 10855 10854 10854 10855 10856 10856 10857 10858 10857 10855 10854 10853 10853 10853 10852 10852 10852 10852 10852 10852 10852 10851 10851 10851 10850 10849 10847 10847 10846 10844 10843 10841 10840 10838 10837 10836 10835 10834 10832 10831 10829 10827 10826 10823 10821 10819 10816 10814 10811 10808 10806 10803 10799 10796 10793 10790 10787 10784 10781 10778 10775 10772 10769 10766 10764 10762 10759 10757 10755 10753 10752 10750 10749 10748 10747
10846 10843 10842 10847 10848 10847 10848 10850 10851 10851 10851 10851 10851 10851 10852 10853 10853 10854 10853 10852 10851 10850 10850 10850 10849 10849 10849 10849 10849 10849 10849 10849 10849 10849 10848 10847 10846 10845 10844 10843 10842 10840 10839 10837 10836 10835 10834 10833 10832 10830 10829 10827 10825 10823 10821 10819 10816 10814 10812 10809 10806 10803 10800 10796 10793 10790 10787 10784 10781 10778 10775 10772 10769 10766 10763 10761 10758 10756 10754 10752 10751 10749 10748 10747 10746
10840 10839 10839 10843 10844 10843 10844 10846 10847 10847 10847 10847 10847 10848 10848 10849 10849 10849 10849 10849 10848 10847 10847 10846 10846 10846 10846 10846 10847 10847 10847 10847 10847 10847 10846 10845 10844 10844 10843 10842 10841 10839 10838 10836 10835 10834 10833 10832 10831 10830 10828 10827 10825 10823 10821 10819 10816 10814 10812 10809 10806 10803 10800 10797 10794 10791 10787 10784 10781 10778 10775 10772 10769 10766 10763 10760 10758 10755 10753 10751 10749 10748 10747 10746 10744
10835 10835 10835 10838 10839 10839 10841 10842 10843 10843 10843 10844 10844 10845 10845 10845 10845 10846 10845 10845 10845 10844 10844 10843 10843 10843 10843 10844 10844 10845 10845 10845 10845 10845 10844 10843 10842 10842 10841 10840 10839 10838 10837 10835 10834 10833 10832 10831 10830 10829 10828 10826 10825 10823 10821 10819 10816 10814 10811 10808 10806 10803 10800 10797 10794 10791 10787 10784 10781 10778 10775 10772 10769 10766 10763 10761 10758 10755 10752 10750 10748 10747 10746 10745 10743
10830 10830 10830 10834 10835 10836 10838 10838 10840 10839 10840 10840 10841 10841 10841 10841 10842 10842 10842 10841 10841 10841 10840 10840 10840 10840 10840 10841 10842 10842 10843 10843 10843 10843 10842 10841 10840 10840 10840 10839 10838 10837 10836 10834 10833 10832 10831 10830 10829 10828 10827 10826 10824 10822 10821 10819 10816 10814 10811 10808 10805 10803 10800 10797 10794 10791 10788 10785 10782 10779 10776 10772 10769 10766 10763 10761 10758 10755 10752 10750 10748 10746 10745 10744 10742
10826 10826 10826 10829 10831 10832 10834 10835 10836 10836 10837 10837 10837 10837 10837 10838 10838 10838 10838 10838 10838 10837 10837 10836 10837 10838 10838 10839 10839 10840 10840 10841 10841 10841 10840 10840 10839 10838 10838 10838 10837 10836 10835 10834 10832 10831 10830 10829 10828 10827 10826 10825 10824 10822 10820 10818 10816 10814 10811 10808 10805 10803 10800 10797 10794 10791 10789 10786 10783 10780 10776 10773 10770 10766 10763 10761 10758 10756 10753 10750 10748 10746 10744 10743 10742
10822 10822 10823 10826 10827 10828 10831 10832 10833 10833 10833 10833 10833 10834 10834 10835 10835 10835 10835 10835 10835 10834 10834 10834 10835 10835 10836 10836 10837 10838 10838 10839 10839 10839 10839 10838 10837 10837 10837 10836 10835 10835 10834 10832 10831 10830 10829 10828 10827 10826 10825 10824 10823 10821 10820 10818 10816 10813 10811 10808 10806 10803 10800 10797 10794 10792 10789 10786 10783 10780 10777 10774 10770 10767 10764 10761 10758 10756 10753 10750 10748 10745 10744 10742 10741
10818 10818 10819 10822 10823 10824 10827 10828 10829 10829 10829 10829 10829 10830 10831 10831 10832 10832 10832 10832 10832 10831 10831 10831 10833 10833 10834 10834 10835 10836 10836 10837 10837 10837 10837 10837 10836 10835 10835 10835 10834 10833 10832 10831 10830 10830 10828 10827 10826 10825 10824 10823 10822 10820 10819 10817 10815 10813 10810 10808 10805 10803 10800 10797 10794 10792 10789 10786 10783 10780 10777 10774 10771 10768 10765 10762 10759 10756 10753 10751 10748 10745 10744 10742 10740
10814 10814 10815 10819 10820 10821 10824 10824 10824 10825 10825 10825 10826 10827 10828 10828 10828 10829 10829 10829 10829 10828 10829 10829 10831 10831 10831 10832 10833 10834 10834 10836 10836 10836 10836 10835 10834 10834 10834 10834 10833 10832 10831 10830 10829 10828 10827 10826 10826 10825 10824 10822 10821 10819 10818 10816 10814 10812 10810 10808 10805 10802 10800 10797 10795 10792 10790 10786 10783 10780 10777 10774 10771 10769 10765 10762 10759 10757 10754 10751 10749 10746 10744 10742 10740
10810 10810 10811 10815 10817 10818 10820 10820 10820 10820 10822 10821 10822 10824 10824 10825 10825 10826 10826 10826 10826 10826 10827 10827 10828 10828 10829 10830 10831 10832 10833 10834 10834 10834 10835 10834 10833 10832 10832 10832 10832 10831 10830 10828 10827 10827 10826 10825 10824 10824 10823 10821 10820 10818 10817 10815 10813 10811 10809 10807 10804 10802 10800 10797 10795 10792 10790 10786 10783 10780 10777 10775 10772 10769 10766 10763 10760 10757 10754 10752 10749 10747 10744 10742 10740
10806 10806 10806 10811 10813 10815 10816 10815 10816 10817 10818 10818 10819 10820 10821 10822 10823 10824 10823 10823 10823 10824 10824 10825 10825 10826 10827 10828 10829 10830 10831 10832 10833 10833 10833 10832 10831 10831 10831 10831 10831 10829 10828 10827 10826 10825 10824 10824 10823 10823 10822 10820 10819 10818 10816 10814 10813 10811 10809 10807 10804 10802 10799 10797 10795 10792 10789 10786 10783 10780 10777 10774 10772 10769 10766 10763 10760 10758 10755 10752 10750 10747 10745 10742 10740
10802 10802 10802 10806 10809 10811 10811 10811 10812 10813 10815 10815 10816 10817 10818 10819 10820 10821 10821 10821 10821 10821 10822 10822 10823 10824 10825 10826 10827 10828 10829 10830 10831 10832 10832 10831 10830 10830 10830 10829 10829 10828 10827 10826 10824 10824 10823 10822 10822 10821 10820 10819 10818 10817 10815 10814 10812 10810 10808 10806 10804 10802 10799 10797 10794 10792 10789 10786 10783 10780 10777 10775 10772 10769 10766 10764 10761 10758 10755 10752 10750 10747 10745 10743 10741
10798 10799 10798 10802 10805 10807 10807 10806 10808 10810 10811 10812 10813 10814 10815 10817 10817 10818 10818 10818 10818 10819 10820 10821 10821 10822 10823 10825 10826 10827 10828 10829 10830 10830 10830 10830 10829 10829 10828 10828 10828 10827 10826 10824 10823 10822 10821 10821 10820 10819 10819 10818 10817 10816 10814 10813 10811 10810 10808 10806 10803 10801 10799 10797 10794 10791 10789 10786 10783 10780 10777 10775 10772 10769 10766 10764 10761 10758 10755 10753 10750 10747 10745 10743 10741
10794 10796 10795 10798 10801 10802 10802 10802 10805 10807 10808 10809 10810 10811 10813 10814 10814 10815 10815 10816 10816 10817 10818 10819 10819 10820 10822 10823 10824 10825 10826 10827 10828 10829 10829 10828 10828 10827 10827 10827 10826 10825 10824 10823 10822 10821 10820 10819 10818 10818 10817 10816 10815 10814 10813 10812 10810 10809 10807 10805 10803 10801 10799 10796 10794 10791 10789 10786 10783 10780 10777 10775 10772 10769 10766 10763 10761 10758 10756 10753 10751 10748 10745 10743 10741
10789 10792 10791 10794 10797 10798 10797 10799 10802 10803 10805 10806 10806 10807 10810 10811 10812 10813 10813 10813 10814 10814 10815 10817 10817 10818 10820 10821 10822 10823 10824 10826 10827 10828 10827 10827 10826 10825 10825 10825 10825 10824 10823 10822 10821 10819 10819 10818 10817 10816 10815 10815 10814 10813 10812 10810 10809 10807 10806 10804 10802 10800 10798 10796 10793 10791 10788 10786 10783 10780 10777 10774 10772 10768 10765 10763 10761 10758 10756 10753 10751 10748 10746 10743 10741
10785 10788 10788 10790 10793 10794 10794 10796 10798 10800 10801 10802 10803 10804 10807 10809 10810 10810 10810 10811 10811 10811 10813 10814 10815 10816 10818 10819 10820 10821 10822 10824 10825 10825 10825 10825 10824 10823 10823 10823 10823 10822 10821 10820 10819 10818 10817 10816 10815 10815 10814 10813 10812 10811 10811 10809 10808 10806 10805 10803 10801 10799 10797 10795 10792 10790 10788 10785 10782 10779 10777 10774 10771 10768 10765 10763 10760 10758 10755 10753 10751 10748 10746 10743 10741
10782 10783 10784 10786 10789 10789 10790 10793 10794 10796 10798 10799 10800 10802 10804 10807 10808 10807 10807 10808 10808 10809 10811 10812 10813 10814 10816 10817 10819 10820 10821 10822 10823 10823 10823 10823 10822 10821 10820 10820 10820 10819 10819 10818 10817 10817 10815 10815 10814 10813 10812 10811 10811 10810 10809 10808 10806 10805 10803 10802 10800 10798 10796 10793 10791 10789 10786 10784 10781 10778 10776 10773 10770 10768 10765 10762 10759 10757 10755 10753 10750 10748 10745 10743 10741
10777 10778 10779 10782 10784 10785 10787 10790 10790 10793 10794 10795 10798 10799 10802 10804 10805 10804 10804 10805 10805 10807 10809 10810 10811 10813 10814 10816 10817 10818 10819 10820 10821 10821 10821 10820 10819 10818 10817 10817 10817 10817 10816 10816 10815 10815 10814 10813 10812 10811 10811 10810 10809 10808 10807 10806 10805 10803 10801 10800 10798 10796 10794 10792 10790 10787 10785 10782 10780 10777 10775 10772 10770 10767 10764 10761 10759 10756 10754 10752 10749 10747 10745 10743 10740
10772 10773 10775 10777 10778 10781 10784 10785 10786 10789 10790 10792 10795 10797 10799 10802 10802 10800 10801 10802 10803 10805 10807 10808 10809 10811 10812 10814 10815 10816 10817 10818 10818 10818 10818 10817 10817 10816 10815 10815 10814 10814 10814 10813 10813 10812 10812 10811 10810 10810 10809 10808 10807 10806 10805 10804 10803 10802 10800 10798 10797 10795 10793 10791 10788 10786 10784 10781 10779 10776 10774 10771 10768 10766 10763 10760 10758 10755 10753 10750 10748 10746 10744 10742 10740
10767 10768 10770 10771 10773 10777 10780 10781 10783 10785 10787 10790 10792 10794 10796 10798 10798 10797 10798 10800 10801 10803 10804 10806 10808 10809 10811 10811 10813 10814 10815 10816 10816 10815 10815 10814 10814 10813 10812 10812 10812 10812 10811 10811 10811 10810 10809 10809 10808 10807 10807 10806 10805 10804 10803 10802 10801 10800 10798 10797 10795 10793 10791 10789 10787 10785 10782 10780 10778 10775 10773 10770 10767 10764 10761 10759 10757 10754 10752 10749 10747 10745 10742 10740 10738
10761 10763 10765 10765 10768 10773 10775 10777 10779 10781 10783 10786 10788 10790 10791 10793 10795 10794 10795 10797 10799 10801 10802 10804 10805 10807 10808 10809 10810 10811 10812 10813 10813 10813 10812 10811 10810 10810 10809 10809 10809 10809 10808 10808 10808 10808 10807 10806 10806 10805 10804 10804 10803 10802 10801 10800 10799 10798 10797 10795 10793 10792 10790 10788 10786 10783 10781 10779 10777 10774 10771 10769 10766 10763 10760 10757 10755 10753 10751 10748 10746 10743 10741 10739 10737
10756 10759 10760 10761 10764 10768 10771 10772 10775 10777 10780 10782 10784 10785 10786 10789 10791 10791 10792 10795 10796 10798 10799 10801 10803 10804 10805 10806 10807 10808 10810 10810 10810 10810 10809 10809 10808 10807 10806 10806 10806 10806 10805 10805 10805 10805 10805 10804 10804 10803 10802 10801 10801 10800 10799 10798 10798 10797 10795 10794 10792 10790 10788 10786 10784 10782 10780 10777 10775 10772 10770 10767 10765 10763 10760 10757 10754 10752 10750 10747 10745 10742 10740 10738 10736
10751 10754 10755 10757 10760 10763 10766 10768 10770 10773 10775 10777 10778 10779 10782 10785 10787 10788 10790 10791 10793 10795 10796 10798 10799 10801 10802 10803 10804 10805 10806 10807 10807 10807 10807 10806 10805 10804 10803 10803 10803 10803 10802 10802 10803 10803 10802 10802 10802 10801 10800 10799 10799 10798 10797 10796 10795 10795 10793 10792 10790 10788 10786 10784 10782 10780 10778 10775 10773 10771 10768 10766 10764 10761 10759 10757 10754 10750 10748 10746 10744 10741 10739 10737 10735
10746 10749 10751 10753 10756 10758 10761 10763 10765 10767 10768 10770 10771 10774 10777 10780 10783 10785 10786 10788 10790 10791 10793 10795 10796 10798 10799 10800 10801 10802 10803 10803 10804 10804 10804 10804 10802 10801 10801 10800 10800 10800 10799 10799 10800 10800 10800 10800 10799 10799 10798 10797 10797 10796 10795 10794 10793 10792 10791 10790 10788 10786 10784 10782 10780 10778 10775 10773 10771 10769 10766 10764 10762 10760 10758 10756 10754 10750 10747 10745 10742 10740 10738 10735 10733
10742 10744 10746 10749 10751 10753 10755 10757 10758 10759 10761 10762 10765 10769 10771 10775 10778 10780 10782 10784 10786 10788 10789 10791 10793 10794 10795 10796 10798 10799 10800 10800 10801 10801 10801 10801 10800 10799 10798 10797 10797 10797 10797 10797 10797 10797 10797 10797 10797 10796 10795 10795 10795 10793 10793 10792 10791 10790 10789 10788 10786 10784 10782 10780 10778 10776 10773 10771 10769 10767 10765 10763 10761 10759 10756 10754 10752 10750 10747 10744 10741 10739 10736 10733 10731
10738 10740 10742 10744 10746 10747 10749 10749 10750 10751 10753 10756 10760 10763 10766 10770 10773 10775 10778 10781 10783 10784 10786 10788 10789 10790 10792 10793 10794 10795 10797 10797 10798 10798 10798 10798 10798 10797 10796 10795 10794 10794 10794 10794 10794 10794 10794 10795 10794 10793 10793 10793 10792 10791 10791 10790 10789 10788 10786 10785 10784 10782 10780 10778 10776 10773 10771 10769 10767 10766 10763 10761 10759 10757 10755 10753 10750 10748 10746 10743 10740 10737 10734 10731 10729
10733 10736 10737 10739 10739 10740 10741 10741 10743 10744 10746 10750 10755 10758 10762 10765 10768 10771 10774 10777 10779 10781 10782 10784 10786 10787 10788 10790 10791 10792 10794 10794 10795 10795 10795 10796 10796 10795 10794 10793 10792 10792 10791 10791 10791 10791 10792 10791 10791 10791 10790 10790 10790 10789 10788 10788 10787 10786 10784 10783 10781 10780 10778 10776 10774 10771 10769 10766 10764 10763 10761 10759 10756 10754 10752 10750 10748 10746 10744 10741 10738 10736 10733 10730 10727
10730 10731 10733 10733 10733 10733 10735 10735 10737 10739 10743 10748 10752 10755 10758 10761 10764 10766 10769 10773 10775 10777 10779 10781 10782 10783 10785 10786 10788 10789 10790 10791 10792 10792 10792 10793 10793 10793 10791 10790 10790 10789 10789 10789 10789 10789 10789 10788 10788 10788 10787 10787 10787 10786 10786 10786 10785 10783 10782 10780 10778 10777 10776 10773 10771 10768 10766 10763 10761 10759 10758 10756 10753 10751 10749 10747 10745 10743 10741 10739 10736 10734 10731 10728 10725
10726 10727 10728 10727 10727 10727 10728 10731 10733 10737 10741 10746 10748 10750 10752 10755 10758 10761 10764 10767 10770 10772 10774 10776 10778 10780 10781 10783 10784 10785 10787 10788 10788 10789 10789 10791 10791 10790 10789 10788 10787 10787 10786 10786 10786 10785 10785 10785 10785 10784 10784 10784 10784 10784 10784 10783 10783 10781 10780 10778 10776 10774 10773 10771 10769 10766 10763 10760 10757 10755 10754 10752 10750 10749 10746 10744 10742 10740 10738 10736 10734 10731 10729 10726 10723
10722 10723 10723 10722 10721 10722 10724 10728 10732 10735 10738 10740 10741 10743 10746 10749 10752 10756 10759 10761 10764 10767 10769 10772 10774 10776 10778 10779 10781 10782 10783 10784 10785 10785 10786 10788 10789 10786 10785 10785 10785 10784 10783 10782 10782 10782 10782 10782 10781 10781 10781 10781 10781 10781 10781 10781 10780 10779 10777 10776 10774 10771 10769 10768 10766 10763 10760 10758 10754 10752 10750 10747 10746 10745 10743 10741 10739 10737 10735 10733 10731 10728 10726 10724 10721
10718 10718 10718 10716 10717 10719 10722 10726 10729 10730 10732 10733 10735 10737 10739 10743 10747 10750 10753 10756 10759 10762 10765 10768 10771 10773 10774 10775 10777 10779 10780 10781 10782 10782 10783 10784 10784 10782 10780 10781 10781 10781 10780 10779 10779 10779 10779 10779 10778 10777 10778 10778 10778 10778 10778 10778 10777 10776 10775 10773 10772 10770 10767 10765 10762 10759 10756 10754 10751 10748 10746 10744 10741 10739 10739 10737 10735 10733 10732 10730 10728 10725 10723 10720 10717
10715 10714 10713 10712 10714 10717 10720 10722 10723 10724 10726 10727 10729 10732 10734 10737 10741 10744 10748 10751 10754 10757 10760 10764 10766 10769 10770 10771 10773 10775 10776 10778 10779 10780 10779 10778 10776 10774 10775 10778 10778 10778 10777 10776 10775 10775 10776 10775 10774 10774 10774 10775 10775 10775 10775 10775 10775 10774 10772 10770 10769 10767 10766 10764 10761 10758 10753 10750 10747 10744 10742 10740 10738 10735 10734 10733 10731 10729 10727 10726 10724 10721 10719 10716 10713
10710 10709 10709 10710 10712 10714 10715 10716 10718 10720 10721 10722 10725 10727 10729 10733 10736 10739 10742 10745 10748 10752 10756 10759 10762 10764 10765 10767 10769 10771 10773 10775 10776 10776 10775 10771 10766 10765 10771 10775 10775 10775 10774 10772 10771 10771 10772 10772 10772 10771 10771 10772 10772 10772 10773 10773 10772 10770 10769 10767 10765 10764 10763 10762 10760 10758 10753 10748 10745 10742 10740 10737 10735 10732 10730 10728 10727 10725 10723 10721 10718 10716 10714 10711 10709
10706 10705 10705 10707 10710 10710 10711 10712 10714 10715 10716 10718 10720 10723 10725 10728 10732 10735 10738 10741 10744 10747 10751 10754 10756 10759 10760 10762 10765 10767 10769 10772 10773 10772 10771 10768 10763 10764 10768 10772 10773 10774 10771 10769 10769 10769 10770 10769 10769 10769 10769 10770 10769 10769 10769 10769 10768 10767 10765 10763 10762 10760 10759 10758 10757 10756 10754 10749 10745 10742 10739 10736 10733 10730 10727 10725 10723 10721 10719 10717 10714 10712 10709 10707 10704
10702 10701 10702 10705 10706 10706 10707 10708 10710 10711 10712 10714 10716 10718 10721 10724 10728 10731 10734 10736 10739 10742 10744 10747 10750 10753 10755 10758 10761 10764 10766 10768 10768 10767 10768 10767 10765 10765 10768 10770 10772 10772 10769 10768 10768 10768 10767 10767 10766 10766 10767 10767 10766 10766 10766 10766 10765 10763 10762 10760 10758 10756 10754 10753 10753 10752 10750 10748 10744 10741 10738 10735 10731 10728 10725 10723 10720 10717 10715 10713 10711 10708 10705 10703 10700
10698 10698 10700 10702 10702 10703 10704 10706 10707 10708 10709 10710 10712 10714 10718 10720 10723 10726 10729 10731 10733 10735 10737 10740 10744 10747 10750 10754 10758 10761 10764 10764 10763 10763 10765 10765 10765 10765 10767 10769 10769 10767 10766 10765 10765 10765 10764 10763 10763 10764 10764 10764 10764 10763 10763 10762 10762 10760 10758 10756 10754 10752 10750 10749 10748 10747 10746 10744 10741 10740 10737 10734 10730 10726 10723 10721 10718 10714 10712 10709 10707 10705 10702 10699 10697
10694 10695 10697 10698 10699 10700 10702 10703 10704 10705 10706 10708 10709 10711 10714 10716 10718 10721 10723 10725 10727 10728 10730 10734 10739 10742 10746 10750 10755 10761 10761 10758 10757 10759 10761 10762 10762 10763 10764 10765 10764 10762 10762 10762 10762 10762 10761 10760 10760 10760 10761 10761 10761 10760 10760 10759 10758 10756 10755 10753 10751 10749 10746 10745 10744 10743 10741 10739 10737 10736 10734 10732 10729 10724 10720 10718 10716 10713 10709 10706 10703 10701 10698 10696 10694